"Pseudo-MPEC" for ZW8BDA3

Created 2018 Dec 8 15:18:20 UT using Find_Orb

Click here for an explanation of pseudo-MPECs

 
 Astrometry: 
     ZW8BDA3  C2018 10 22eAfAstrometryBvOoPqXPrA?.$redacted;,,_(`/4HCqNOORpnMF52
     ZW8BDA3  C2018 10 22#@_Tclick7^c9#K=cWWkrftcQHmhereTcN\e_@$m1B,O6cSM2d^*F52
     ZW8BDA3  C2018 10 22nP'a05$_qX$1R(X%dm;NGH!33sq=rPeH12forF_qr=O)pXah]5xTF52
     ZW8BDA3  C2018 10 22/J3(A+Kp\wi]\:USj8#HSk_Y7g=7PgKY.Vexplanation3ZjpWYSF52
     ZW8BDA3  C2018 11 28.30228 03 39 35.79 +39 08 44.8          21.4 GVNEOCPG96
     ZW8BDA3  C2018 11 28.30743 03 39 35.49 +39 08 48.7          21.1 GVNEOCPG96
     ZW8BDA3  C2018 11 28.31256 03 39 35.07 +39 08 52.5          21.5 GVNEOCPG96
     ZW8BDA3  C2018 11 28.32485 03 39 34.16 +39 09 01.3          20.7 GVNEOCPG96
     ZW8BDA3  C2018 11 28.44065 03 39 25.56 +39 10 25.9          21.0 GVNEOCPI52
     ZW8BDA3  C2018 11 28.44486 03 39 25.24 +39 10 28.2          22.2 GVNEOCPI52
     ZW8BDA3  C2018 11 28.44908 03 39 24.95 +39 10 31.3          22.8 GVNEOCPI52
     ZW8BDA3  C2018 11 28.45330 03 39 24.66 +39 10 34.5          21.9 GVNEOCPI52
     ZW8BDA3  C2018 11 29.15264 03 38 36.99 +39 19 08.7                VNEOCPI52
     ZW8BDA3  C2018 11 29.15914 03 38 36.57 +39 19 13.6          21.9 GVNEOCPI52
     ZW8BDA3  C2018 11 29.16483 03 38 36.10 +39 19 17.7          21.9 GVNEOCPI52
     ZW8BDA3  C2018 11 29.17032 03 38 35.73 +39 19 23.7                VNEOCPI52

Station data:
(F52) Pan-STARRS 2, Haleakala  (N20.707384 W156.255910)  US/Hawaii.
(G96) Mt. Lemmon Survey  (N32.442754 W110.788720)  US/Arizona.  Observers B.
   M. Africano, E. J. Christensen, G. A. Farneth, D. C. Fuls, A. R. Gibbs, A.
   D. Grauer, H. Groeller, J. A. Johnson, R. A. Kowalski, S. M. Larson, G. J.
   Leonard, R. L. Seaman, F. C. Shelly. 1.5-m reflector + 10K CCD.
(I52) Steward Observatory, Mt. Lemmon Station  (N32.442547 W110.788920)
   US/Arizona.  Observers B. M. Africano, E. J. Christensen, G. A. Farneth,
   D. C. Fuls, A. R. Gibbs, A. D. Grauer, H. Groeller, J. A. Johnson, R. A.
   Kowalski, S. M. Larson, G. J. Leonard, R. L. Seaman, F. C. Shelly. 1.0-m
   reflector + CCD.

Orbital elements:  ZW8BDA3
   Perihelion 2018 Sep 20.448706 +/- 0.136 TT = 10:46:08 (JD 2458381.948706)
Epoch 2018 Nov 29.0 TT = JDT 2458451.5   Earth MOID: 0.6946   Ju: 0.7736
M   7.80848827 +/- 0.06             (J2000 ecliptic)          AutoNEOCP
n   0.11226949 +/- 0.00107          Peri.  349.20694 +/- 0.07
a   4.25560733 +/- 0.0271           Node    39.00879 +/- 0.028
e   0.6039503 +/- 0.00226           Incl.   20.37829 +/- 0.045
P   8.78                   H 20.1   G  0.15   U  8.2  
q 1.68543190 +/- 0.00132    Q 6.82578277 +/- 0.0538
From 16 observations 2018 Oct. 22-Nov. 29; mean residual 0".36
Residuals in arcseconds: 
181022 F52  .09-  .08+    181128 G96  .16+  .08+    181129 I52  .19-  .45-    
181022 F52  .00   .02+    181128 G96  .28+  .19-    181129 I52  .43+  .40-    
181022 F52  .02+  .10-    181128 I52  .26-  .44+    181129 I52  .21-  .53-    
181022 F52  .07+  .01+    181128 I52  .43-  .27-    181129 I52  .15+  1.4+    
181128 G96  .43-  .01+    181128 I52  .25-  .18-    
181128 G96  .57+  .09+    181128 I52  .07-  .01+    

Ephemerides (geocentric):
Date (UTC) HH   RA              Dec         delta   r     elong  mag " sig PA
---- -- -- --  -------------   -----------  ------ ------ -----  --- ---- ---
2018 12 08 15  03 28 57.465   +40 51 57.47  .93245 1.8669 153.6 22.1 4.50  34
2018 12 08 16  03 28 55.340   +40 52 16.71  .93277 1.8671 153.6 22.1 4.52  34
2018 12 08 17  03 28 53.219   +40 52 35.90  .93308 1.8673 153.6 22.1 4.54  34
2018 12 08 18  03 28 51.103   +40 52 55.04  .93340 1.8675 153.5 22.1 4.56  34
2018 12 08 19  03 28 48.991   +40 53 14.15  .93372 1.8676 153.5 22.1 4.57  34
2018 12 08 20  03 28 46.883   +40 53 33.22  .93404 1.8678 153.5 22.1 4.59  34
2018 12 08 21  03 28 44.780   +40 53 52.24  .93436 1.8680 153.4 22.1 4.61  34
2018 12 08 22  03 28 42.680   +40 54 11.22  .93468 1.8682 153.4 22.1 4.63  33
2018 12 08 23  03 28 40.586   +40 54 30.16  .93499 1.8684 153.4 22.1 4.65  33
2018 12 09 00  03 28 38.495   +40 54 49.06  .93531 1.8685 153.3 22.1 4.67  33
2018 12 09 01  03 28 36.409   +40 55 07.91  .93563 1.8687 153.3 22.2 4.69  33
2018 12 09 02  03 28 34.327   +40 55 26.73  .93596 1.8689 153.3 22.2 4.71  33
2018 12 09 03  03 28 32.250   +40 55 45.50  .93628 1.8691 153.2 22.2 4.73  33
2018 12 09 04  03 28 30.177   +40 56 04.23  .93660 1.8692 153.2 22.2 4.74  33
2018 12 09 05  03 28 28.108   +40 56 22.93  .93692 1.8694 153.2 22.2 4.76  33
2018 12 09 06  03 28 26.044   +40 56 41.58  .93724 1.8696 153.1 22.2 4.78  33
2018 12 09 07  03 28 23.984   +40 57 00.18  .93756 1.8698 153.1 22.2 4.80  32
2018 12 09 08  03 28 21.928   +40 57 18.75  .93789 1.8700 153.1 22.2 4.82  32
2018 12 09 09  03 28 19.877   +40 57 37.28  .93821 1.8701 153.0 22.2 4.84  32
2018 12 09 10  03 28 17.830   +40 57 55.76  .93853 1.8703 153.0 22.2 4.86  32
2018 12 09 11  03 28 15.787   +40 58 14.21  .93886 1.8705 153.0 22.2 4.88  32
2018 12 09 12  03 28 13.749   +40 58 32.61  .93918 1.8707 152.9 22.2 4.90  32
2018 12 09 13  03 28 11.716   +40 58 50.97  .93950 1.8708 152.9 22.2 4.91  32
2018 12 09 14  03 28 09.686   +40 59 09.30  .93983 1.8710 152.9 22.2 4.93  32
2018 12 09 15  03 28 07.662   +40 59 27.58  .94015 1.8712 152.8 22.2 4.95  32
2018 12 09 16  03 28 05.641   +40 59 45.82  .94048 1.8714 152.8 22.2 4.97  31
2018 12 09 17  03 28 03.625   +41 00 04.02  .94081 1.8716 152.8 22.2 4.99  31
2018 12 09 18  03 28 01.614   +41 00 22.18  .94113 1.8717 152.7 22.2 5.01  31
2018 12 09 19  03 27 59.606   +41 00 40.30  .94146 1.8719 152.7 22.2 5.03  31
2018 12 09 20  03 27 57.604   +41 00 58.38  .94178 1.8721 152.7 22.2 5.05  31
2018 12 09 21  03 27 55.606   +41 01 16.42  .94211 1.8723 152.6 22.2 5.07  31
2018 12 09 22  03 27 53.612   +41 01 34.41  .94244 1.8724 152.6 22.2 5.09  31
2018 12 09 23  03 27 51.623   +41 01 52.37  .94277 1.8726 152.5 22.2 5.10  31
2018 12 10 00  03 27 49.638   +41 02 10.29  .94310 1.8728 152.5 22.2 5.12  30
2018 12 10 01  03 27 47.657   +41 02 28.17  .94342 1.8730 152.5 22.2 5.14  30
2018 12 10 02  03 27 45.682   +41 02 46.01  .94375 1.8732 152.4 22.2 5.16  30
2018 12 10 03  03 27 43.710   +41 03 03.80  .94408 1.8733 152.4 22.2 5.18  30
2018 12 10 04  03 27 41.743   +41 03 21.56  .94441 1.8735 152.4 22.2 5.20  30
2018 12 10 05  03 27 39.781   +41 03 39.28  .94474 1.8737 152.3 22.2 5.22  30
2018 12 10 06  03 27 37.823   +41 03 56.96  .94507 1.8739 152.3 22.2 5.24  30
2018 12 10 07  03 27 35.870   +41 04 14.60  .94540 1.8741 152.3 22.2 5.26  30
2018 12 10 08  03 27 33.921   +41 04 32.20  .94573 1.8742 152.2 22.2 5.28  30
2018 12 10 09  03 27 31.976   +41 04 49.76  .94607 1.8744 152.2 22.2 5.29  29
2018 12 10 10  03 27 30.036   +41 05 07.28  .94640 1.8746 152.2 22.2 5.31  29
2018 12 10 11  03 27 28.101   +41 05 24.76  .94673 1.8748 152.1 22.2 5.33  29
2018 12 10 12  03 27 26.170   +41 05 42.20  .94706 1.8750 152.1 22.2 5.35  29
2018 12 10 13  03 27 24.244   +41 05 59.60  .94739 1.8751 152.1 22.2 5.37  29
2018 12 10 14  03 27 22.322   +41 06 16.96  .94773 1.8753 152.0 22.2 5.39  29